Time,TemperatureF,DewpointF,PressureIn,WindDirection,WindDirectionDegrees,WindSpeedMPH,WindSpeedGustMPH,Humidity,HourlyPrecipIn,Conditions,Clouds,dailyrainin,SoftwareType,DateUTC
2013-02-21 00:01:00,35.0,34.0,29.99,ESE,116,0.0,1.0,95,0.00,,,0.03,,2013-02-21 08:01:00,
2013-02-21 00:11:00,36.0,35.0,29.98,ESE,116,0.0,1.0,96,0.00,,,0.03,,2013-02-21 08:11:00,
2013-02-21 00:21:00,36.0,35.0,29.98,ESE,116,0.0,1.0,96,0.00,,,0.03,,2013-02-21 08:21:00,
2013-02-21 00:31:00,35.0,34.0,29.98,ESE,116,0.0,2.0,95,0.00,,,0.03,,2013-02-21 08:31:00,
2013-02-21 00:41:00,35.0,34.0,29.98,ESE,116,0.0,2.0,95,0.00,,,0.03,,2013-02-21 08:41:00,
2013-02-21 00:52:00,35.0,34.0,29.99,ESE,116,0.0,1.0,95,0.00,,,0.03,,2013-02-21 08:52:00,
2013-02-21 01:01:00,35.0,34.0,29.99,ESE,116,0.0,1.0,95,0.00,,,0.03,,2013-02-21 09:01:00,
2013-02-21 01:11:00,35.0,34.0,29.99,ESE,116,0.0,1.0,95,0.00,,,0.03,,2013-02-21 09:11:00,
2013-02-21 01:22:00,36.0,35.0,30.00,ESE,116,0.0,1.0,96,0.00,,,0.03,,2013-02-21 09:22:00,
2013-02-21 01:31:00,36.0,35.0,30.01,SE,124,0.0,3.0,96,0.00,,,0.03,,2013-02-21 09:31:00,
2013-02-21 01:41:00,36.0,35.0,30.01,SE,124,0.0,3.0,96,0.00,,,0.03,,2013-02-21 09:41:00,
2013-02-21 01:52:00,36.0,35.0,30.01,ESE,121,0.0,3.0,96,0.00,,,0.03,,2013-02-21 09:52:00,
2013-02-21 02:01:00,36.0,35.0,30.01,ESE,121,0.0,2.0,96,0.00,,,0.03,,2013-02-21 10:01:00,
2013-02-21 02:11:00,36.0,35.0,30.01,ESE,121,0.0,2.0,96,0.00,,,0.03,,2013-02-21 10:11:00,
2013-02-21 02:21:00,36.0,35.0,30.00,ESE,121,0.0,0.0,95,0.00,,,0.03,,2013-02-21 10:21:00,
2013-02-21 02:31:00,36.0,35.0,30.00,ESE,107,0.0,3.0,95,0.00,,,0.03,,2013-02-21 10:31:00,
2013-02-21 02:41:00,36.0,35.0,30.00,ESE,107,0.0,3.0,95,0.00,,,0.03,,2013-02-21 10:41:00,
2013-02-21 02:51:00,36.0,35.0,30.01,ESE,107,0.0,0.0,95,0.00,,,0.03,,2013-02-21 10:51:00,
2013-02-21 03:00:00,36.0,35.0,29.99,ESE,107,0.0,1.0,95,0.00,,,0.03,,2013-02-21 11:00:00,
2013-02-21 03:10:00,36.0,35.0,29.99,ESE,107,0.0,1.0,95,0.00,,,0.03,,2013-02-21 11:10:00,
2013-02-21 03:21:00,37.0,36.0,30.01,ESE,107,0.0,2.0,96,0.00,,,0.03,,2013-02-21 11:21:00,
2013-02-21 03:31:00,37.0,36.0,30.01,SSE,157,1.0,3.0,95,0.00,,,0.03,,2013-02-21 11:31:00,
2013-02-21 03:41:00,37.0,36.0,30.01,SSE,157,1.0,3.0,95,0.00,,,0.03,,2013-02-21 11:41:00,
2013-02-21 03:51:00,37.0,36.0,29.98,SE,146,2.0,6.0,95,0.00,,,0.03,,2013-02-21 11:51:00,
2013-02-21 04:01:00,37.0,36.0,29.99,SSE,148,1.0,4.0,95,0.00,,,0.03,,2013-02-21 12:01:00,
2013-02-21 04:11:00,37.0,36.0,29.99,SSE,148,1.0,4.0,95,0.00,,,0.03,,2013-02-21 12:11:00,
2013-02-21 04:21:00,37.0,36.0,30.01,SSE,164,0.0,5.0,95,0.01,,,0.04,,2013-02-21 12:21:00,
2013-02-21 04:32:00,37.0,36.0,30.00,SE,143,1.0,3.0,95,0.01,,,0.04,,2013-02-21 12:32:00,
2013-02-21 04:42:00,37.0,36.0,29.99,East,101,2.0,6.0,95,0.01,,,0.04,,2013-02-21 12:42:00,
2013-02-21 04:52:00,37.0,36.0,29.99,East,101,2.0,6.0,95,0.01,,,0.04,,2013-02-21 12:52:00,
2013-02-21 05:01:00,38.0,37.0,29.99,SE,133,2.0,7.0,95,0.01,,,0.04,,2013-02-21 13:01:00,
2013-02-21 05:12:00,38.0,37.0,29.99,SE,133,2.0,7.0,95,0.01,,,0.04,,2013-02-21 13:12:00,
2013-02-21 05:22:00,38.0,37.0,30.00,SSE,163,2.0,8.0,95,0.00,,,0.04,,2013-02-21 13:22:00,
2013-02-21 05:31:00,38.0,36.0,30.01,South,171,1.0,7.0,94,0.00,,,0.04,,2013-02-21 13:31:00,
2013-02-21 05:41:00,38.0,36.0,30.01,South,171,1.0,7.0,94,0.00,,,0.04,,2013-02-21 13:41:00,
2013-02-21 05:52:00,38.0,36.0,30.00,SSE,149,4.0,7.0,94,0.00,,,0.04,,2013-02-21 13:52:00,
2013-02-21 06:01:00,38.0,36.0,29.99,SSE,161,2.0,5.0,94,0.00,,,0.04,,2013-02-21 14:01:00,
2013-02-21 06:11:00,38.0,36.0,29.99,SSE,161,2.0,5.0,94,0.00,,,0.04,,2013-02-21 14:11:00,
2013-02-21 06:21:00,39.0,37.0,30.00,ENE,78,3.0,6.0,94,0.00,,,0.04,,2013-02-21 14:21:00,
2013-02-21 06:31:00,39.0,37.0,30.00,SSE,150,2.0,7.0,94,0.01,,,0.05,,2013-02-21 14:31:00,
2013-02-21 06:41:00,39.0,37.0,30.00,SSE,150,2.0,7.0,94,0.01,,,0.05,,2013-02-21 14:41:00,
2013-02-21 06:52:00,39.0,37.0,30.00,ESE,123,2.0,9.0,94,0.01,,,0.05,,2013-02-21 14:52:00,
2013-02-21 07:01:00,39.0,37.0,30.01,ESE,110,1.0,5.0,94,0.01,,,0.05,,2013-02-21 15:01:00,
2013-02-21 07:12:00,39.0,37.0,30.01,ESE,110,1.0,5.0,94,0.01,,,0.05,,2013-02-21 15:12:00,
2013-02-21 07:21:00,39.0,37.0,30.01,SSE,150,2.0,5.0,94,0.01,,,0.05,,2013-02-21 15:21:00,
2013-02-21 07:31:00,39.0,37.0,30.01,SSE,149,2.0,7.0,94,0.00,,,0.05,,2013-02-21 15:31:00,
2013-02-21 07:41:00,39.0,37.0,30.01,SSE,149,2.0,7.0,94,0.00,,,0.05,,2013-02-21 15:41:00,
2013-02-21 07:52:00,39.0,37.0,30.01,SSE,164,4.0,8.0,93,0.00,,,0.05,,2013-02-21 15:52:00,
2013-02-21 08:01:00,39.0,37.0,30.01,SE,146,2.0,7.0,93,0.00,,,0.05,,2013-02-21 16:01:00,
2013-02-21 08:12:00,39.0,37.0,30.01,SSE,167,2.0,10.0,93,0.00,,,0.05,,2013-02-21 16:12:00,
2013-02-21 08:21:00,39.0,37.0,30.01,SSE,167,2.0,10.0,93,0.00,,,0.05,,2013-02-21 16:21:00,
2013-02-21 08:31:00,40.0,38.0,30.01,SE,136,2.0,8.0,93,0.00,,,0.05,,2013-02-21 16:31:00,
2013-02-21 08:41:00,40.0,38.0,30.01,South,170,3.0,10.0,93,0.00,,,0.05,,2013-02-21 16:41:00,
2013-02-21 08:52:00,40.0,38.0,30.01,South,170,3.0,10.0,93,0.00,,,0.05,,2013-02-21 16:52:00,
2013-02-21 09:01:00,40.0,38.0,30.01,SE,132,5.0,9.0,93,0.00,,,0.05,,2013-02-21 17:01:00,
2013-02-21 09:11:00,40.0,38.0,30.01,SSE,155,3.0,7.0,92,0.00,,,0.05,,2013-02-21 17:11:00,
2013-02-21 09:21:00,40.0,38.0,30.01,SSE,155,3.0,7.0,92,0.00,,,0.05,,2013-02-21 17:21:00,
2013-02-21 09:32:00,40.0,38.0,30.01,South,171,3.0,9.0,91,0.00,,,0.05,,2013-02-21 17:32:00,
2013-02-21 09:41:00,40.0,38.0,30.01,South,171,3.0,9.0,91,0.00,,,0.05,,2013-02-21 17:41:00,
2013-02-21 09:52:00,40.0,38.0,30.01,ENE,71,5.0,11.0,91,0.00,,,0.05,,2013-02-21 17:52:00,
2013-02-21 10:01:00,41.0,39.0,30.01,SE,125,3.0,9.0,91,0.00,,,0.05,,2013-02-21 18:01:00,
2013-02-21 10:11:00,41.0,39.0,30.01,SE,125,3.0,9.0,91,0.00,,,0.05,,2013-02-21 18:11:00,
2013-02-21 10:21:00,41.0,38.0,30.01,SE,128,4.0,9.0,90,0.00,,,0.05,,2013-02-21 18:21:00,
2013-02-21 10:31:00,41.0,38.0,30.03,South,174,2.0,6.0,90,0.00,,,0.05,,2013-02-21 18:31:00,
2013-02-21 10:42:00,41.0,38.0,30.03,South,174,2.0,6.0,90,0.00,,,0.05,,2013-02-21 18:42:00,
2013-02-21 10:51:00,41.0,38.0,30.02,SSE,151,3.0,6.0,90,0.00,,,0.05,,2013-02-21 18:51:00,
2013-02-21 11:01:00,41.0,38.0,30.02,SSE,150,1.0,8.0,89,0.00,,,0.05,,2013-02-21 19:01:00,
2013-02-21 11:11:00,41.0,38.0,30.02,SSE,150,1.0,8.0,89,0.00,,,0.05,,2013-02-21 19:11:00,
2013-02-21 11:21:00,41.0,38.0,30.03,SE,132,2.0,6.0,89,0.00,,,0.05,,2013-02-21 19:21:00,
2013-02-21 11:31:00,41.0,38.0,30.02,East,85,3.0,8.0,89,0.00,,,0.05,,2013-02-21 19:31:00,
2013-02-21 11:41:00,41.0,38.0,30.02,East,85,3.0,8.0,89,0.00,,,0.05,,2013-02-21 19:41:00,
2013-02-21 11:52:00,41.0,38.0,30.02,SSE,162,1.0,7.0,89,0.00,,,0.05,,2013-02-21 19:52:00,
2013-02-21 12:01:00,41.0,38.0,30.01,ESE,116,4.0,9.0,88,0.00,,,0.05,,2013-02-21 20:01:00,
2013-02-21 12:11:00,41.0,38.0,30.01,SSE,161,3.0,10.0,89,0.01,,,0.06,,2013-02-21 20:11:00,
2013-02-21 12:21:00,41.0,38.0,30.01,SSE,161,3.0,10.0,89,0.01,,,0.06,,2013-02-21 20:21:00,
2013-02-21 12:31:00,41.0,38.0,30.01,SSE,161,3.0,10.0,89,0.01,,,0.06,,2013-02-21 20:31:00,
2013-02-21 12:41:00,41.0,38.0,30.01,SSE,161,3.0,10.0,89,0.01,,,0.06,,2013-02-21 20:41:00,
2013-02-21 12:52:00,41.0,38.0,30.01,SSE,161,3.0,10.0,89,0.01,,,0.06,,2013-02-21 20:52:00,
2013-02-21 13:02:00,41.0,37.0,30.00,South,188,6.0,13.0,86,0.01,,,0.06,,2013-02-21 21:02:00,
2013-02-21 13:11:00,41.0,37.0,30.00,South,188,6.0,13.0,86,0.01,,,0.06,,2013-02-21 21:11:00,
2013-02-21 13:21:00,41.0,37.0,30.00,South,188,6.0,13.0,86,0.01,,,0.06,,2013-02-21 21:21:00,
2013-02-21 13:31:00,42.0,38.0,30.00,SSE,167,1.0,10.0,86,0.00,,,0.06,,2013-02-21 21:31:00,
2013-02-21 13:41:00,41.0,38.0,30.00,SSE,153,2.0,9.0,88,0.00,,,0.06,,2013-02-21 21:41:00,
2013-02-21 13:52:00,41.0,38.0,30.00,SSE,153,2.0,9.0,88,0.00,,,0.06,,2013-02-21 21:52:00,
2013-02-21 14:01:00,41.0,37.0,30.00,SE,134,3.0,11.0,85,0.00,,,0.06,,2013-02-21 22:01:00,
2013-02-21 14:11:00,41.0,37.0,30.00,SE,134,3.0,11.0,85,0.00,,,0.06,,2013-02-21 22:11:00,
2013-02-21 14:21:00,41.0,37.0,29.99,SSE,167,1.0,9.0,86,0.00,,,0.06,,2013-02-21 22:21:00,
2013-02-21 14:31:00,41.0,37.0,30.00,SE,130,4.0,10.0,86,0.00,,,0.06,,2013-02-21 22:31:00,
2013-02-21 14:41:00,41.0,37.0,30.00,SE,130,4.0,10.0,86,0.00,,,0.06,,2013-02-21 22:41:00,
2013-02-21 14:52:00,41.0,38.0,29.99,SSE,153,4.0,9.0,88,0.00,,,0.06,,2013-02-21 22:52:00,
2013-02-21 15:01:00,41.0,38.0,30.00,SE,136,4.0,8.0,89,0.00,,,0.06,,2013-02-21 23:01:00,
2013-02-21 15:11:00,41.0,38.0,30.00,SE,136,4.0,8.0,89,0.00,,,0.06,,2013-02-21 23:11:00,
2013-02-21 15:21:00,41.0,38.0,30.00,South,173,3.0,7.0,89,0.00,,,0.05,,2013-02-21 23:21:00,
2013-02-21 15:31:00,41.0,38.0,30.00,East,89,2.0,8.0,89,0.00,,,0.05,,2013-02-21 23:31:00,
2013-02-21 15:41:00,41.0,38.0,30.00,East,89,2.0,8.0,89,0.00,,,0.05,,2013-02-21 23:41:00,
2013-02-21 15:52:00,41.0,38.0,30.00,SE,126,3.0,8.0,89,0.00,,,0.05,,2013-02-21 23:52:00,
2013-02-21 16:01:00,41.0,38.0,30.00,ESE,117,1.0,4.0,89,0.00,,,0.05,,2013-02-22 00:01:00,
2013-02-21 16:11:00,41.0,38.0,30.00,ESE,117,1.0,4.0,89,0.00,,,0.05,,2013-02-22 00:11:00,
2013-02-21 16:21:00,41.0,38.0,30.00,South,169,2.0,4.0,89,0.00,,,0.05,,2013-02-22 00:21:00,
2013-02-21 16:31:00,41.0,38.0,30.01,SE,141,3.0,8.0,89,0.00,,,0.05,,2013-02-22 00:31:00,
2013-02-21 16:41:00,41.0,38.0,30.01,SE,141,3.0,8.0,89,0.00,,,0.05,,2013-02-22 00:41:00,
2013-02-21 16:52:00,41.0,38.0,30.01,SSE,165,0.0,5.0,90,0.00,,,0.05,,2013-02-22 00:52:00,
2013-02-21 17:01:00,41.0,38.0,30.00,SSE,160,2.0,6.0,90,0.00,,,0.05,,2013-02-22 01:01:00,
2013-02-21 17:11:00,41.0,38.0,30.00,SSE,160,2.0,6.0,90,0.00,,,0.05,,2013-02-22 01:11:00,
2013-02-21 17:21:00,41.0,38.0,30.00,SSE,154,2.0,5.0,90,0.00,,,0.05,,2013-02-22 01:21:00,
2013-02-21 17:32:00,41.0,38.0,30.01,SE,136,1.0,4.0,90,0.00,,,0.05,,2013-02-22 01:32:00,
2013-02-21 17:42:00,41.0,38.0,30.01,SE,136,1.0,4.0,90,0.00,,,0.05,,2013-02-22 01:42:00,
2013-02-21 17:52:00,41.0,38.0,30.02,SE,142,0.0,4.0,90,0.00,,,0.05,,2013-02-22 01:52:00,
2013-02-21 18:01:00,41.0,38.0,30.02,SE,132,0.0,4.0,90,0.00,,,0.05,,2013-02-22 02:01:00,
2013-02-21 18:11:00,41.0,38.0,30.02,SE,132,0.0,4.0,90,0.00,,,0.05,,2013-02-22 02:11:00,
2013-02-21 18:21:00,41.0,38.0,30.02,ESE,110,1.0,4.0,90,0.00,,,0.04,,2013-02-22 02:21:00,
2013-02-21 18:31:00,41.0,39.0,30.02,ENE,67,0.0,5.0,91,0.00,,,0.04,,2013-02-22 02:31:00,
2013-02-21 18:42:00,41.0,39.0,30.02,ENE,76,0.0,4.0,91,0.00,,,0.04,,2013-02-22 02:42:00,
2013-02-21 18:52:00,41.0,39.0,30.02,ENE,76,0.0,4.0,91,0.00,,,0.04,,2013-02-22 02:52:00,
2013-02-21 19:01:00,41.0,39.0,30.01,ESE,109,0.0,3.0,92,0.00,,,0.04,,2013-02-22 03:01:00,
2013-02-21 19:11:00,41.0,39.0,30.01,ESE,109,0.0,3.0,92,0.00,,,0.04,,2013-02-22 03:11:00,
2013-02-21 19:21:00,41.0,39.0,30.01,East,91,0.0,3.0,92,0.00,,,0.03,,2013-02-22 03:21:00,
2013-02-21 19:31:00,40.0,38.0,30.01,SSE,149,0.0,3.0,93,0.00,,,0.03,,2013-02-22 03:31:00,
2013-02-21 19:41:00,40.0,38.0,30.01,SSE,149,0.0,3.0,93,0.00,,,0.03,,2013-02-22 03:41:00,
2013-02-21 19:52:00,40.0,38.0,30.01,ESE,121,2.0,5.0,93,0.00,,,0.03,,2013-02-22 03:52:00,
2013-02-21 20:01:00,40.0,38.0,30.01,ESE,121,1.0,4.0,93,0.00,,,0.03,,2013-02-22 04:01:00,
2013-02-21 20:11:00,40.0,38.0,30.01,East,96,1.0,5.0,94,0.00,,,0.03,,2013-02-22 04:11:00,
2013-02-21 20:21:00,40.0,38.0,30.01,East,96,1.0,5.0,94,0.00,,,0.03,,2013-02-22 04:21:00,
2013-02-21 20:31:00,41.0,39.0,30.02,East,83,0.0,4.0,94,0.00,,,0.03,,2013-02-22 04:31:00,
2013-02-21 20:41:00,41.0,39.0,30.02,East,83,0.0,4.0,94,0.00,,,0.03,,2013-02-22 04:41:00,
2013-02-21 20:51:00,40.0,38.0,30.03,East,83,0.0,2.0,94,0.00,,,0.03,,2013-02-22 04:51:00,
2013-02-21 21:01:00,40.0,38.0,30.03,East,83,0.0,0.0,93,0.00,,,0.03,,2013-02-22 05:01:00,
2013-02-21 21:11:00,40.0,38.0,30.03,East,83,0.0,0.0,93,0.00,,,0.03,,2013-02-22 05:11:00,
2013-02-21 21:22:00,40.0,38.0,30.03,ENE,73,0.0,4.0,94,0.00,,,0.03,,2013-02-22 05:22:00,
2013-02-21 21:32:00,40.0,38.0,30.03,East,86,0.0,3.0,94,0.00,,,0.03,,2013-02-22 05:32:00,
2013-02-21 21:41:00,40.0,38.0,30.03,East,86,0.0,3.0,94,0.00,,,0.03,,2013-02-22 05:41:00,
2013-02-21 21:52:00,41.0,39.0,30.04,East,86,0.0,3.0,94,0.00,,,0.03,,2013-02-22 05:52:00,
2013-02-21 22:01:00,41.0,39.0,30.04,East,87,0.0,3.0,94,0.00,,,0.03,,2013-02-22 06:01:00,
2013-02-21 22:11:00,41.0,39.0,30.04,East,87,0.0,3.0,94,0.00,,,0.03,,2013-02-22 06:11:00,
2013-02-21 22:21:00,41.0,39.0,30.04,ESE,117,0.0,2.0,93,0.00,,,0.03,,2013-02-22 06:21:00,
2013-02-21 22:31:00,41.0,39.0,30.03,ESE,118,0.0,4.0,93,0.00,,,0.03,,2013-02-22 06:31:00,
2013-02-21 22:41:00,41.0,39.0,30.03,ESE,118,0.0,4.0,93,0.00,,,0.03,,2013-02-22 06:41:00,
2013-02-21 22:52:00,41.0,39.0,30.02,ESE,118,0.0,2.0,93,0.00,,,0.03,,2013-02-22 06:52:00,
2013-02-21 23:01:00,41.0,39.0,30.01,SSE,159,1.0,4.0,92,0.00,,,0.03,,2013-02-22 07:01:00,
2013-02-21 23:11:00,41.0,39.0,30.01,SSE,167,2.0,5.0,92,0.00,,,0.03,,2013-02-22 07:11:00,
2013-02-21 23:21:00,41.0,39.0,30.01,SSE,167,2.0,5.0,92,0.00,,,0.03,,2013-02-22 07:21:00,
2013-02-21 23:31:00,41.0,39.0,30.01,SSE,168,4.0,8.0,91,0.00,,,0.03,,2013-02-22 07:31:00,
2013-02-21 23:42:00,41.0,39.0,30.02,SSE,153,3.0,7.0,91,0.00,,,0.03,,2013-02-22 07:42:00,
2013-02-21 23:52:00,41.0,39.0,30.02,SSE,153,3.0,7.0,91,0.00,,,0.03,,2013-02-22 07:52:00,